Location: Lombard
(41.8800°N, 88.0080°W)
Time: 12:01:36
(UTC-05:00)

A-11 Canister half - Pass Details

Date: 04 February 2023
Orbit: 1512 x 1687 km, 47.2° (Epoch: 20 March)

Event Time Altitude Azimuth Distance (km) Brightness Sun altitude
Rises 18:11:18 0° 294° (WNW) 4,691 12.5 -11.6°
Reaches altitude 10° 18:14:56 10° 283° (WNW) 3,690 12.1 -12.3°
Maximum altitude 18:22:13 27° 230° (SW) 2,583 10.9 -13.6°
Drops below altitude 10° 18:29:29 10° 177° (S) 3,664 11.1 -14.9°
Sets 18:33:06 0° 166° (SSE) 4,653 11.5 -15.6°
